Theta_e
326 326 329 330 327 326 327 328 328 328 327 326 326 325 326 327 327 328 329 327 326 327 327 328 328 328 328 326 326 328 328 328 328 329 328 327 327 327 325 325 325 324 323
326 326 329 329 326 325 328 328 328 328 328 327 326 325 327 328 328 329 325 325 325 326 328 327 328 328 327 327 327 328 328 328 328 329 328 327 328 326 327 326 325 324 323
325 327 329 328 326 325 328 328 329 329 328 329 328 328 328 328 328 327 325 325 326 326 327 328 328 328 327 327 328 328 328 328 328 328 328 327 327 327 327 325 324 323 321
325 328 328 328 327 326 328 329 329 329 329 329 328 328 328 328 328 326 325 325 325 326 326 328 328 328 328 328 328 328 328 328 328 327 327 326 326 326 326 325 325 324 324
326 328 327 328 328 327 328 329 329 328 328 328 328 328 327 327 327 326 324 324 325 326 326 327 327 328 328 328 328 327 328 327 327 326 326 326 325 326 327 325 325 324 322
324 327 327 329 327 327 328 328 329 328 328 328 328 327 326 326 326 327 325 324 325 325 326 326 327 328 328 328 328 327 327 327 326 326 326 324 325 327 325 325 323 321 322
324 326 326 329 326 328 328 327 328 329 329 329 329 328 328 326 326 325 325 326 325 326 327 327 327 328 327 327 327 326 326 326 326 326 327 326 327 327 323 320 320 320 321
324 326 325 328 327 326 327 325 323 328 328 327 328 328 328 328 326 326 325 326 326 326 326 327 327 327 327 327 326 326 325 324 325 326 325 326 327 325 318 317 317 321 315
323 326 325 326 328 325 325 324 322 326 327 327 328 328 328 328 327 326 327 327 326 327 327 327 327 327 326 327 327 327 326 326 326 324 322 321 321 320 319 321 322 320 316
322 325 326 327 327 327 327 326 322 326 327 327 328 327 328 327 327 327 327 327 327 327 326 327 327 327 326 326 326 323 325 325 325 323 323 323 323 322 321 322 323 322 310
322 323 325 328 326 325 325 326 321 324 327 327 327 327 327 327 328 328 328 327 327 326 325 326 326 326 326 326 325 324 325 324 322 323 323 321 317 318 319 318 317 312 312
322 322 324 327 324 324 323 325 321 323 324 325 326 326 327 327 326 327 327 327 327 327 327 326 326 326 326 327 325 322 322 322 321 318 312 311 311 311 312 312 312 312 310
321 322 323 324 325 324 324 323 320 321 322 320 322 324 323 325 326 327 327 327 326 327 327 327 326 325 324 325 324 321 318 316 314 312 313 312 312 311 310 309 307 307 306
321 321 321 322 325 324 324 322 320 319 319 320 320 321 321 324 325 323 324 325 325 326 326 322 321 321 321 321 321 320 318 315 314 314 314 312 310 308 307 307 306 304 302
320 320 320 320 324 325 323 323 322 320 319 318 319 321 322 320 324 324 324 323 323 321 320 321 317 317 318 319 319 318 316 314 314 315 314 311 307 306 305 306 304 303 299
318 318 319 319 321 323 324 322 322 323 322 321 320 320 318 318 322 321 320 320 322 320 319 320 318 317 316 317 318 316 316 315 315 314 313 310 307 305 304 303 303 302 297
317 317 317 318 318 320 322 322 321 322 322 322 322 322 322 322 321 318 315 312 313 318 319 318 318 319 317 315 316 315 315 314 314 313 313 311 309 306 304 303 301 299 295
317 317 316 317 318 319 320 321 322 321 321 322 322 322 322 323 324 323 321 318 308 309 313 316 315 315 317 316 315 315 314 313 313 313 312 311 307 305 303 301 299 297 295
316 315 316 316 317 319 320 320 321 321 321 321 322 323 323 323 324 324 322 321 317 311 308 309 312 313 312 314 314 313 311 309 311 312 311 310 307 304 301 301 299 296 295
317 317 316 316 316 318 319 320 320 320 320 320 321 322 323 322 321 322 322 321 319 318 317 312 308 310 311 310 310 310 311 307 308 310 310 307 305 303 302 300 298 296 295
318 317 317 316 316 317 319 319 320 320 320 319 320 320 320 322 321 320 320 321 320 319 319 319 317 308 309 310 308 305 306 308 308 309 309 307 305 302 301 298 297 296 295
319 317 317 317 317 317 318 319 319 319 319 319 319 319 319 320 319 319 319 319 320 321 320 319 319 319 317 310 310 310 305 304 306 308 307 305 302 301 299 298 297 295 294
320 318 317 318 317 318 318 318 319 319 319 319 319 318 318 319 318 319 319 319 317 317 319 317 316 317 316 316 313 310 311 309 309 307 306 303 301 300 299 297 296 294 295
321 319 319 319 318 318 318 318 318 319 319 319 319 318 318 318 318 319 319 319 319 320 319 318 317 317 317 316 315 312 311 312 310 307 305 303 300 299 297 296 295 297 296
322 321 320 320 319 317 318 318 318 318 318 318 318 318 318 318 317 318 319 319 319 318 318 318 317 316 315 313 313 312 310 310 309 306 304 302 300 298 296 297 298 296 293
322 322 321 320 320 319 318 318 318 318 318 318 318 318 318 319 319 319 318 318 318 318 318 317 315 314 313 311 310 310 309 308 309 308 304 302 299 298 299 299 297 294 292
Wind_Speed
10 6 4 2 2 3 5 5 2 4 7 9 9 9 6 8 8 9 11 11 11 12 10 10 14 15 16 17 16 14 18 18 15 16 30 29 26 26 26 21 18 16 13
9 6 5 4 3 4 5 6 5 4 7 10 10 9 8 8 9 15 15 13 15 15 15 16 17 17 18 19 18 17 20 23 25 17 28 28 26 26 23 19 16 12 9
9 9 8 6 4 5 7 7 6 6 10 11 11 13 12 11 12 15 15 14 14 14 17 17 16 17 16 18 19 19 20 23 24 21 23 25 22 24 21 16 12 10 9
12 11 9 8 5 5 8 9 8 9 11 12 14 15 15 14 13 16 17 16 15 15 14 17 18 18 22 23 24 23 24 24 26 23 25 21 23 24 19 18 14 11 8
14 12 9 9 7 7 8 9 9 8 10 14 16 15 14 14 14 16 17 18 17 16 14 16 16 18 21 22 23 23 25 23 23 23 20 19 20 20 17 13 13 10 8
16 14 12 12 10 9 11 10 9 11 12 13 14 16 16 14 14 17 18 17 16 17 17 14 16 20 19 19 22 25 28 27 24 21 19 17 18 17 14 17 16 9 4
18 15 15 14 13 10 10 9 10 12 13 11 11 13 14 16 16 15 12 15 15 16 19 18 19 21 21 25 23 22 18 23 24 18 20 19 22 20 19 18 15 11 7
20 18 18 16 14 12 8 7 8 10 11 9 8 10 17 17 16 11 11 14 17 17 18 21 25 25 27 26 23 19 17 16 9 5 9 14 15 18 16 16 16 14 13
24 22 20 18 17 14 11 8 7 7 11 10 10 15 18 16 13 13 15 18 17 20 23 22 26 28 23 20 16 12 11 11 10 8 12 14 15 15 14 14 15 15 5
28 25 22 20 20 18 13 9 8 8 11 12 14 14 16 17 13 12 14 18 20 21 22 26 24 27 21 14 7 13 16 14 14 13 10 12 13 14 12 9 12 16 11
31 27 24 21 21 19 17 14 12 12 13 14 13 13 12 12 14 13 13 16 20 23 21 20 20 20 14 7 6 12 14 14 15 19 18 17 16 14 12 11 11 11 12
30 29 26 23 23 20 19 18 17 17 16 15 13 11 9 10 10 11 11 14 18 21 22 19 18 16 11 8 7 11 16 18 21 21 20 19 19 19 18 16 15 14 15
30 31 29 26 24 22 22 22 20 18 18 16 15 13 12 10 10 10 11 11 13 14 15 14 14 14 13 13 14 15 14 16 19 22 23 22 21 20 21 22 22 19 19
31 32 31 29 27 25 23 24 23 21 19 18 16 14 13 12 11 13 12 12 12 12 15 15 14 14 14 15 16 16 16 19 20 22 23 21 22 23 23 23 22 21 19
32 32 32 31 30 28 27 26 26 24 24 22 20 19 18 15 16 15 15 14 13 13 15 16 16 16 16 17 18 19 20 21 20 22 26 27 27 24 22 21 21 16 15
29 29 31 30 32 31 29 25 26 26 24 23 20 21 20 18 18 17 16 14 16 17 16 17 17 18 20 21 22 22 21 22 22 24 27 28 28 26 25 22 16 16 18
34 30 29 29 29 28 27 25 21 23 24 25 25 23 21 19 18 17 19 20 19 19 20 21 22 24 25 24 25 25 24 23 23 25 28 29 28 27 27 22 19 18 17
36 39 36 31 29 28 29 28 25 23 22 24 27 25 25 24 20 20 20 20 20 23 24 24 26 27 29 29 29 29 26 25 26 27 29 29 29 29 28 23 21 21 20
35 35 35 33 32 31 28 27 29 25 24 25 28 27 26 24 24 23 25 27 27 28 29 27 27 29 31 33 33 33 30 27 28 29 31 31 30 30 26 24 22 22 21
34 37 36 32 30 30 28 26 24 24 24 24 29 33 30 28 28 29 29 30 30 31 31 31 32 30 30 32 35 35 33 30 29 30 31 31 30 29 28 28 28 28 23
32 37 39 32 32 32 30 29 27 25 25 26 32 35 34 36 36 36 35 35 35 34 33 32 31 32 32 31 32 34 35 34 32 32 34 34 33 33 29 27 29 26 18
29 34 37 33 30 30 31 31 29 28 27 27 32 35 34 35 35 37 39 40 37 36 35 35 36 36 35 36 35 34 36 36 34 33 35 36 35 34 29 28 20 17 17
25 28 31 28 31 30 31 30 30 30 30 31 31 32 35 36 37 38 40 39 40 40 38 35 34 34 35 35 37 38 39 39 36 38 38 37 37 37 36 34 28 21 14
26 23 28 29 27 29 30 30 30 32 29 28 30 33 36 38 39 39 40 39 39 39 39 40 40 40 37 36 37 36 37 37 36 37 39 41 39 39 38 33 27 20 14
31 32 29 26 27 30 29 28 29 29 32 31 31 33 35 36 36 37 37 37 37 38 38 37 37 37 36 36 35 35 37 37 34 35 39 40 42 42 38 29 24 19 17
26 29 30 26 25 26 26 27 30 29 30 33 35 36 33 34 34 35 35 33 32 32 32 32 32 31 30 29 29 30 31 34 35 38 43 48 50 43 35 33 28 24 23
Wind_Direction
189 191 182 95 90 94 104 85 109 154 167 176 171 162 147 147 155 149 146 147 145 154 156 165 165 170 163 164 151 149 145 127 123 118 137 149 144 142 144 146 149 153 158
187 193 171 128 88 99 89 91 101 132 160 162 162 160 153 146 143 133 135 138 141 147 154 154 152 157 147 153 156 145 141 139 130 124 139 144 149 153 148 148 151 153 159
185 180 157 143 108 94 112 99 90 117 136 144 145 143 143 140 137 125 129 132 135 145 150 147 151 156 140 145 149 150 146 143 133 127 140 148 144 159 142 144 138 137 136
177 173 154 149 119 103 119 105 98 124 131 134 136 137 139 140 139 132 128 127 129 134 144 156 158 158 146 146 143 142 144 134 127 122 131 135 142 144 148 140 144 144 143
176 171 157 148 128 122 129 109 107 117 129 136 137 139 139 141 140 135 132 131 128 130 140 152 154 157 158 153 151 146 140 130 128 121 115 124 135 146 155 154 146 145 127
179 169 156 146 129 132 131 114 118 124 131 132 140 143 142 139 134 132 132 133 133 138 144 143 149 153 155 153 140 142 144 139 122 124 132 140 155 153 152 155 154 146 141
181 169 162 151 139 136 134 117 118 138 138 137 147 149 149 145 141 131 127 135 144 145 147 147 150 152 142 135 130 130 132 135 131 136 150 152 159 164 156 158 157 148 117
184 176 171 162 151 148 139 125 120 143 154 144 134 147 149 146 152 145 137 139 144 147 146 155 143 144 143 137 136 133 139 149 164 147 156 154 158 158 154 153 157 135 116
187 185 179 172 165 160 154 136 122 129 156 137 124 127 139 142 145 137 135 135 129 139 147 157 150 145 143 138 134 132 140 151 156 138 129 135 141 157 161 163 154 141 109
191 190 186 181 173 171 171 162 140 124 138 135 130 129 134 136 140 137 140 131 129 125 140 145 154 158 154 149 129 134 138 147 152 149 130 140 154 165 175 177 173 159 140
197 192 189 188 181 177 174 173 157 141 132 136 135 138 140 133 136 138 151 150 142 142 145 150 156 161 161 156 127 142 143 144 146 151 144 139 143 148 154 154 161 163 142
197 192 191 191 187 180 176 172 167 158 145 139 138 137 146 159 151 141 142 152 157 157 163 169 174 178 188 184 161 150 151 146 144 146 146 141 138 137 135 132 128 125 111
195 194 192 191 193 188 181 175 173 173 166 159 155 149 148 150 163 163 164 168 169 167 168 172 179 188 194 193 182 178 178 178 166 157 156 154 152 145 138 129 123 117 115
192 196 194 190 190 192 192 187 184 183 183 178 176 171 168 169 168 169 169 173 180 184 183 176 175 174 176 182 187 196 202 198 187 175 167 160 156 152 149 145 137 133 120
188 193 195 195 193 193 197 197 199 201 197 193 195 192 188 193 193 187 188 187 189 189 180 181 180 182 185 191 193 193 196 198 191 183 173 167 165 164 157 153 146 144 133
179 186 191 192 194 197 197 200 210 213 213 217 214 207 208 217 209 205 204 204 203 201 196 194 195 196 198 196 194 193 197 199 196 189 180 176 174 172 165 163 161 148 135
181 186 189 189 189 190 195 196 196 212 218 221 222 225 225 222 217 217 220 220 217 215 215 211 211 210 211 208 204 203 203 204 203 199 191 187 185 181 173 168 163 157 145
185 189 190 191 192 192 196 201 202 201 205 215 223 224 226 229 230 227 221 218 207 213 217 219 219 221 220 217 215 213 213 210 206 204 198 193 189 184 178 173 169 163 157
181 185 189 191 196 198 197 200 205 207 209 214 219 223 224 223 226 229 230 225 219 221 224 226 230 231 228 224 223 221 220 217 212 205 201 198 194 189 180 177 175 172 164
185 189 187 188 190 194 197 198 202 205 209 210 217 221 218 218 220 222 224 225 226 231 231 232 232 234 236 233 229 227 225 223 219 213 207 201 197 195 189 184 181 173 172
183 186 188 187 192 194 197 200 206 206 210 213 222 227 223 217 220 224 226 227 229 231 233 236 240 239 238 236 234 230 228 225 222 215 210 205 201 193 190 190 182 172 163
182 183 186 190 193 194 199 203 203 206 211 215 227 232 232 224 223 227 231 231 233 236 239 241 239 237 238 238 234 230 227 226 221 217 212 203 193 188 182 174 174 170 161
189 186 187 192 196 200 200 202 204 207 210 216 222 225 225 225 225 230 234 237 237 238 241 244 244 248 248 243 241 236 231 227 226 224 207 191 186 185 175 165 166 173 174
196 197 195 194 194 199 201 204 208 211 212 216 218 224 231 231 232 233 236 238 240 241 242 244 246 248 249 247 243 239 235 232 228 213 201 185 177 177 166 163 170 174 183
201 199 202 205 196 200 205 204 208 212 214 215 222 225 232 236 238 241 241 243 244 245 247 248 248 248 247 246 243 237 231 228 213 199 190 185 176 168 165 166 170 174 193
216 205 205 204 203 199 205 205 211 214 215 218 223 229 230 240 246 248 248 248 248 249 251 251 251 250 247 243 240 236 229 222 209 201 193 182 169 165 171 171 175 183 198